"2022-10-08 00:01:00",818302,-4.826067,-5.949829,-18.07251,15.74355,-18.43199,15.77635,-0.9264145,-0.2889674,-18.65749,14.32381,0,0.004,7999,0,0,0,12.43623,12.9525,12.97767,12.35466,13.04817,13.32724,11.47047,14.50065,13.96539,11.47901,"NAN","NAN",14.0325,-9.031648,-2.722542,-2.048778,-5.272759,0.5170491,24.5836,27.62632,33.93555,38.56518,24.37563,25.26403,35.80955,38.79802,32.59277,0.2018709,0.2939037,0.526041,0.7318304,0.1960536,0.2213266,0.6057267,0.7429727,0.4719678,1.000077,13.94387,13.17356,376.9,376.7,368.6,-6.988,12.35
"2022-10-08 00:02:00",818303,-4.71862,-5.928627,-19.04476,15.73698,-18.26391,15.77307,-1.113268,-0.2889673,-18.88014,14.33037,0,0.004,7999,0,0,0,12.46849,12.9983,13.04003,12.35466,13.04473,13.32743,11.46719,14.49718,13.96539,11.48228,"NAN","NAN",14.03251,-9.014245,-2.71745,-2.048797,-5.261722,0.5170491,24.58813,27.62632,33.93103,38.55387,24.37789,25.26177,35.80503,38.79802,32.59051,0.201998,0.2939037,0.5258546,0.7312915,0.1961166,0.2212609,0.6055285,0.7429727,0.471879,1.000077,13.94764,13.18922,375.9,376.9,368.4,-7.239,12.37
"2022-10-08 00:03:00",818304,-4.686382,-5.918012,-19.4451,15.74026,-18.20789,15.79933,-1.113266,-0.2889673,-18.96919,14.37303,0,0.004,7999,0,0,0,12.46832,13.07051,13.11882,12.35466,13.04817,13.3238,11.46063,14.49371,13.96539,11.48883,"NAN","NAN",14.03233,-8.993258,-2.714039,-2.051254,-5.252339,0.5170492,24.58587,27.62632,33.93555,38.56292,24.37337,25.26177,35.80955,38.79802,32.59051,0.2019345,0.2939038,0.526041,0.7317226,0.1959907,0.2212609,0.6057268,0.7429728,0.4718789,1.000077,13.96646,13.2104,375.5,377.1,368.6,-7.277,12.41
"2022-10-08 00:04:00",818305,-4.611147,-5.811771,-19.44507,15.77924,-18.37593,15.80898,-1.299988,-0.2408058,-19.01369,14.39929,0,0.004,7999,0,0,0,12.47848,13.05737,13.06629,12.35123,13.04129,13.32724,11.46377,14.49025,13.96539,11.49538,"NAN","NAN",14.03561,-8.967914,-2.706367,-2.053714,-5.243819,0.5170503,24.57908,27.62858,33.94459,38.56518,24.37563,25.26629,35.80277,38.79575,32.59277,0.2017437,0.2939769,0.5264138,0.7318305,0.1960536,0.2213923,0.6054295,0.7428641,0.4719678,1.000077,13.98303,13.18829,375.7,377,368.7,-7.095,12.39
"2022-10-08 00:05:00",818306,-4.697148,-5.80116,-19.55942,15.81227,-18.48795,15.83872,-1.237869,-0.2889665,-19.23631,14.42244,0,0.004,7745,0,0,0,12.48473,13.05737,13.05644,12.35123,13.04473,13.3238,11.47702,14.49025,13.97523,11.50521,"NAN","NAN",14.03561,-8.938196,-2.702107,-2.055355,-5.233593,0.516975,24.5836,27.6331,33.95137,38.5697,24.37111,25.26177,35.80277,38.79349,32.59277,0.2018709,0.2941234,0.5266933,0.7320463,0.1959278,0.2212609,0.6054295,0.7427556,0.4719678,1.000077,13.99131,13.20119,375.8,377,368.6,-7.341,12.4
"2022-10-08 00:06:00",818307,-4.772388,-5.833035,-19.731,15.83215,-18.54398,15.88427,-1.113449,-0.2889665,-19.50348,14.47803,0,0.004,7780,0,0,0,12.47505,13.05737,13.07287,12.35123,13.04473,13.32724,11.47046,14.49025,13.98197,11.50848,"NAN","NAN",14.03216,-8.904091,-2.698695,-2.058631,-5.225064,0.5170525,24.58134,27.62858,33.95363,38.57196,24.38467,25.26629,35.80729,38.79802,32.59051,0.2018073,0.2939771,0.5267866,0.7321539,0.1963053,0.2213924,0.6056275,0.7429727,0.4718789,1.000077,14.01014,13.18092,375.7,377.2,368.6,-7.544,12.44
"2022-10-08 00:07:00",818308,-4.804582,-5.896719,-20.01686,15.88139,-18.59991,15.89452,-0.8647308,-0.2889651,-19.81508,14.48131,0,0.004,7864,0,0,0,12.44868,13.06723,13.11555,12.35123,13.04473,13.33416,11.46719,14.49046,13.97852,11.52158,"NAN","NAN",14.0287,-8.865499,-2.69269,-2.059423,-5.213908,0.5170571,24.57682,27.63084,33.94685,38.55613,24.37789,25.26855,35.80277,38.78897,32.59051,0.2016802,0.2940501,0.5265069,0.7313994,0.1961165,0.2214581,0.6054295,0.742539,0.4718789,1.000077,14.01805,13.20947,375.7,377.2,368.3,-7.807,12.44
"2022-10-08 00:08:00",818309,-4.879811,-5.928581,-20.36,15.89103,-18.93605,15.8978,-1.113571,-0.2889651,-19.77055,14.48459,0,0.004,7960,0,0,0,12.42577,13.06723,13.07943,12.35123,13.04473,13.32035,11.46704,14.49353,13.97523,11.53139,"NAN","NAN",14.03561,-8.823524,-2.688425,-2.060242,-5.205379,0.517058,24.5836,27.62406,33.94459,38.57196,24.37789,25.25725,35.80503,38.79802,32.59051,0.2018709,0.2938306,0.5264138,0.7321541,0.1961166,0.2211295,0.6055285,0.7429727,0.471879,1.000077,14.03876,13.16987,375.4,376.9,368.4,-7.47,12.38
"2022-10-08 00:09:00",818310,-5.0088,-6.013587,-20.24557,15.89759,-18.99203,15.94046,-1.111944,-0.2889642,-19.72597,14.5207,0,0.004,7999,0,0,0,12.42904,13.05737,13.05956,12.35123,13.0344,13.32724,11.46019,14.49681,13.97195,11.53466,"NAN","NAN",14.0287,-8.780692,-2.684166,-2.062703,-5.196008,0.5170602,24.57908,27.62406,33.94459,38.55613,24.38015,25.26629,35.80503,38.79575,32.58599,0.2017437,0.2938306,0.5264137,0.7313993,0.1961794,0.2213923,0.6055285,0.7428641,0.4717012,1.000077,14.03876,13.18184,375.6,377.1,368.6,-7.452,12.41
"2022-10-08 00:10:00",818311,-5.084054,-6.056103,-20.41708,15.94682,-18.99197,15.9698,-1.172529,-0.2889634,-19.94855,14.55698,0,0.004,7999,0,0,0,12.46504,13.05737,13.06958,12.35123,13.02751,13.31347,11.46003,14.49353,13.97506,11.53139,"NAN","NAN",14.03525,-8.732614,-2.679907,-2.065983,-5.185784,0.5170645,24.5836,27.6218,33.94685,38.56292,24.38015,25.25951,35.80729,38.79802,32.58599,0.2018709,0.2937574,0.5265069,0.7317226,0.1961795,0.2211952,0.6056275,0.7429727,0.4717011,1.000077,14.06135,13.19105,375.7,377.2,368.6,-7.672,12.44
"2022-10-08 00:11:00",818312,-5.116299,-6.077353,-20.35989,15.96283,-18.87992,15.9696,-1.545797,-0.2889634,-19.72591,14.56354,0,0.004,7999,0,0,0,12.42904,13.05737,13.05644,12.35123,13.02751,13.3238,11.45691,14.49025,13.97852,11.53793,"NAN","NAN",14.0287,-8.680144,-2.67479,-2.068439,-5.17896,0.5170645,24.58587,27.62632,33.95137,38.56744,24.37563,25.26629,35.80729,38.80254,32.59504,0.2019344,0.2939037,0.5266933,0.7319382,0.1960536,0.2213923,0.6056275,0.7431898,0.4720567,1.000089,14.07792,13.17263,375.8,377.3,368.8,-7.536,12.46
"2022-10-08 00:12:00",818313,-5.159192,-6.109107,-20.58853,15.97595,-19.15992,16.01206,-1.111061,-0.2889616,-19.99296,14.57959,0,0.004,7999,0,0,0,12.43886,13.05737,13.05299,12.3545,13.03096,13.32035,11.46034,14.49353,13.9716,11.53793,"NAN","NAN",14.0418,-8.627473,-2.669609,-2.069209,-5.17031,0.5169926,24.58134,27.62858,33.95589,38.56292,24.37563,25.26177,35.80729,38.79123,32.58825,0.2018073,0.293977,0.5268798,0.7317226,0.1960536,0.2212609,0.6056276,0.7426471,0.47179,1.000077,14.0862,13.17815,375.7,377.3,368.7,-7.681,12.45
"2022-10-08 00:13:00",818314,-5.212913,-6.183455,-20.58853,16.02827,-19.21595,16.03463,-1.297696,-0.2889616,-20.03749,14.62208,0,0.004,7999,0,0,0,12.46504,13.05737,13.05299,12.3545,13.03096,13.31347,11.45348,14.49681,13.97834,11.53793,"NAN","NAN",14.03853,-8.570633,-2.665345,-2.071666,-5.160928,0.5170712,24.57456,27.6331,33.95363,38.55613,24.37563,25.26629,35.80277,38.80027,32.59051,0.2016167,0.2941234,0.5267865,0.7313993,0.1960536,0.2213923,0.6054295,0.7430813,0.4718789,1.000077,14.0975,13.18921,375.9,377.3,368.8,-7.543,12.47
"2022-10-08 00:14:00",818315,-5.2559,-6.183447,-20.8743,16.03812,-19.43987,16.05411,-1.109675,-0.2889592,-20.1709,14.625,0,0.004,7999,0,0,0,12.49782,13.05737,13.05628,12.36105,13.02751,13.31002,11.45333,14.50009,13.97852,11.53793,"NAN","NAN",14.04508,-8.512028,-2.662781,-2.075756,-5.151536,0.5170776,24.58813,27.62632,33.95589,38.56518,24.38241,25.26177,35.80955,38.79802,32.58599,0.2019981,0.2939037,0.5268797,0.7318304,0.1962423,0.221261,0.6057267,0.7429729,0.4717011,1.000077,14.1088,13.19842,375.7,377.2,368.7,-7.586,12.44
"2022-10-08 00:15:00",818316,-5.341873,-6.225929,-20.93131,16.06766,-19.49573,16.10047,-0.8594386,-0.2889568,-20.1262,14.63793,0,0.004,7999,0,0,0,12.49455,13.05737,13.04955,12.36105,13.02751,13.30658,11.44306,14.50338,13.9747,11.53452,"NAN","NAN",14.0418,-8.453424,-2.655953,-2.078209,-5.142998,0.5170902,24.58134,27.63084,33.95815,38.5584,24.37789,25.26855,35.80277,38.79123,32.58599,0.2018073,0.2940502,0.5269729,0.731507,0.1961166,0.2214581,0.6054295,0.7426471,0.4717011,1.000115,14.13365,13.18092,375.8,377.4,368.8,-7.714,12.48
"2022-10-08 00:16:00",818317,-5.352621,-6.300301,-20.58818,16.11012,-19.21562,16.11689,-1.419345,-0.2889568,-20.17073,14.67786,0,0.004,7999,0,0,0,12.48472,13.05737,13.05923,12.36105,13.02751,13.30658,11.46987,14.51341,13.98162,11.53109,"NAN","NAN",14.04836,-8.394835,-2.653395,-2.078209,-5.134469,0.5170902,24.58587,27.62406,33.94007,38.5697,24.37563,25.26403,35.80503,38.80027,32.59504,0.2019344,0.2938306,0.5262275,0.7320461,0.1960536,0.2213266,0.6055285,0.7430813,0.4720567,1.000102,14.13365,13.19105,376.4,377.8,369,-7.849,12.55
"2022-10-08 00:17:00",818318,-5.341847,-6.300271,-21.44598,16.13966,-19.66377,16.15956,-1.171669,-0.2889563,-20.48239,14.70393,0,0.004,7991,0,0,0,12.48799,13.06723,13.08549,12.3676,13.02751,13.30986,11.45618,14.51322,13.97816,11.53452,"NAN","NAN",14.04508,-8.330951,-2.648262,-2.079835,-5.125058,0.5170916,24.58134,27.62406,33.91068,38.56518,24.37563,25.26403,35.80277,38.80932,32.58599,0.2018073,0.2938307,0.5250167,0.7318304,0.1960536,0.2213266,0.6054295,0.7435158,0.4717011,1.000128,14.17319,13.21684,375.7,377.6,368.8,-7.795,12.51
"2022-10-08 00:18:00",818319,-5.320346,-6.300264,-20.75971,16.12304,-19.43968,16.17555,-1.171669,-0.2889563,-20.57144,14.69682,0,0.004,7999,0,0,0,12.51093,13.06394,13.07202,12.3676,13.02751,13.30986,11.46303,14.51651,13.98454,11.5311,"NAN","NAN",14.05164,-8.268864,-2.646556,-2.08311,-5.116529,0.5170919,24.58587,27.62632,33.9152,38.56518,24.38467,25.26403,35.80729,38.79575,32.59504,0.2019344,0.2939037,0.5252029,0.7318304,0.1963053,0.2213266,0.6056275,0.7428641,0.4720567,1.000166,14.19352,13.17723,376.3,377.9,368.7,-8.21,12.57
"2022-10-08 00:19:00",818320,-5.352574,-6.31087,-20.64531,16.10991,-19.27159,16.11976,-0.9232915,-0.288956,-20.61594,14.69682,0,0.004,7999,0,0,0,12.5568,13.13272,13.15459,12.36433,13.02751,13.30658,11.45975,14.5196,13.97763,11.52768,"NAN","NAN",14.05164,-8.205866,-2.643985,-2.088013,-5.110535,0.5170928,24.58587,27.62632,33.90842,38.57422,24.37789,25.26629,35.80729,38.78671,32.58825,0.2019345,0.2939038,0.5249237,0.7322617,0.1961166,0.2213923,0.6056275,0.7424302,0.47179,1.000102,14.20594,13.18552,376.3,377.8,368.7,-8.14,12.54
"2022-10-08 00:20:00",818321,-5.352541,-6.310831,-20.75966,16.10663,-18.93544,16.10991,-1.297028,-0.2889557,-20.43781,14.69682,0,0.004,7999,0,0,0,12.58302,13.169,13.18638,12.37743,13.02751,13.30658,11.44606,14.51304,13.97452,11.5308,"NAN","NAN",14.0418,-8.142867,-2.63715,-2.088004,-5.100276,0.5170946,24.58134,27.63536,33.91746,38.56066,24.38015,25.25499,35.80503,38.78445,32.58825,0.2018073,0.2941966,0.5252961,0.7316148,0.1961794,0.2210638,0.6055285,0.7423217,0.47179,1.000178,14.21724,13.19657,376.2,378,368.8,-8.24,12.6
"2022-10-08 00:21:00",818322,-5.352541,-6.310831,-20.53091,16.10007,-18.82339,16.11668,-0.9237595,-0.2889557,-20.48234,14.70029,0,0.004,7999,0,0,0,12.61578,13.21168,13.19295,12.38398,13.02751,13.30658,11.44934,14.51595,13.97106,11.53393,"NAN","NAN",14.05492,-8.079033,-2.634591,-2.088823,-5.090895,0.5170946,24.58134,27.62858,33.92199,38.56518,24.38467,25.25499,35.80503,38.80254,32.59277,0.2018073,0.293977,0.5254822,0.7318304,0.1963052,0.2210638,0.6055285,0.74319,0.4719677,1.000178,14.22853,13.17999,376.4,378.2,368.8,-8.42,12.63
"2022-10-08 00:22:00",818323,-5.34181,-6.268353,-20.8737,16.08694,-18.93513,16.1134,-1.29776,-0.2889509,-20.70463,14.70029,0,0.004,7999,0,0,0,12.69439,13.24448,13.24839,12.39053,13.02751,13.30658,11.43563,14.52636,13.9911,11.52336,"NAN","NAN",14.05492,-8.016976,-2.629483,-2.092106,-5.08409,0.51711,24.57908,27.63084,33.92424,38.56066,24.38693,25.25499,35.80729,38.79575,32.59051,0.2017438,0.2940501,0.5255753,0.7316148,0.1963682,0.2210638,0.6056276,0.7428641,0.4718789,1.000191,14.25339,13.18092,376,378.1,368.6,-8.54,12.6
"2022-10-08 00:23:00",818324,-5.352561,-6.193986,-20.58776,16.06068,-18.65502,16.10663,-1.297758,-0.2889509,-20.57105,14.73618,0,0.004,7999,0,0,0,12.71732,13.26418,13.25841,12.39053,13.02751,13.31313,11.44918,14.51594,13.97763,11.52946,"NAN","NAN",14.0582,-7.954016,-2.625219,-2.091287,-5.073002,0.5170355,24.58134,27.6331,33.92424,38.56292,24.38693,25.25725,35.80729,38.78897,32.58825,0.2018073,0.2941236,0.5255753,0.7317227,0.1963682,0.2211295,0.6056275,0.7425386,0.47179,1.000153,14.25339,13.19013,376.1,378.3,368.9,-8.54,12.65
"2022-10-08 00:24:00",818325,-5.35257,-6.215246,-21.10245,16.10335,-18.99114,16.10991,-0.8625819,-0.2889509,-20.57105,14.77556,0,0.004,7999,0,0,0,12.73697,13.29373,13.24787,12.39708,13.02751,13.31641,11.42863,14.51575,13.98419,11.55969,"NAN","NAN",14.06148,-7.890202,-2.624373,-2.095387,-5.063634,0.5171133,24.5836,27.62406,33.92199,38.56292,24.38467,25.26855,35.80051,38.79349,32.59051,0.2018709,0.2938306,0.5254822,0.7317228,0.1963052,0.2214581,0.6053305,0.7427557,0.4718789,1.000127,14.27222,13.19565,375.8,378,369.1,-7.992,12.59
"2022-10-08 00:25:00",818326,-5.331094,-6.183395,-20.47337,16.06397,-18.59899,16.10991,-0.9873098,-0.2889508,-21.01631,14.77556,0,0.004,7861,0,0,0,12.7632,13.28665,13.29745,12.39381,13.02751,13.31641,11.42535,14.509,13.98401,11.56906,"NAN","NAN",14.06803,-7.828137,-2.617557,-2.09703,-5.055973,0.5171136,24.57908,27.62406,33.92199,38.56292,24.38015,25.26403,35.81181,38.79349,32.58599,0.2017438,0.2938306,0.5254822,0.7317226,0.1961794,0.2213269,0.6058258,0.7427556,0.4717011,1.000153,14.28426,13.18644,376.3,378.4,368.7,-8.84,12.66
"2022-10-08 00:26:00",818327,-5.35259,-6.183395,-20.53056,16.04756,-18.59899,16.10991,-0.9250997,-0.2407923,-20.92726,14.77556,0,0.004,7999,0,0,0,12.72715,13.29701,13.28071,12.40364,13.02751,13.30986,11.4252,14.509,13.98401,11.5756,"NAN","NAN",14.07131,-7.765176,-2.614998,-2.098668,-5.047443,0.5171136,24.58813,27.61728,33.92199,38.56744,24.38015,25.25725,35.80503,38.79575,32.58599,0.201998,0.293611,0.5254822,0.7319384,0.1961794,0.2211295,0.6055285,0.7428641,0.4717011,1.000089,14.30083,13.19934,376.1,378.4,368.8,-8.77,12.66
"2022-10-08 00:27:00",818328,-5.384782,-6.300204,-17.72832,15.98192,-17.53457,16.08037,-1.050008,-0.2889505,-20.57103,14.76571,0,0.004,7978,0,0,0,12.72715,13.29684,13.24736,12.41675,13.02751,13.31313,11.42193,14.51228,13.98073,11.56859,"NAN","NAN",14.06476,-7.700378,-2.61241,-2.101919,-5.03715,0.5171146,24.58134,27.61728,33.91972,38.5697,24.38467,25.25951,35.80729,38.78445,32.58825,0.2018073,0.2936111,0.5253891,0.7320461,0.1963052,0.2211952,0.6056275,0.7423218,0.47179,1.000166,14.31589,13.18736,378.5,379.3,369.1,-9.29,12.83
"2022-10-08 00:28:00",818329,-5.674969,-6.332064,-16.12706,15.72592,-16.19007,15.90971,-1.298854,-0.4815842,-21.99586,14.66399,0,0.004,7675,0,0,0,12.74682,13.36562,13.3068,12.41675,13.02751,13.32623,11.41865,14.51209,13.98401,11.55163,"NAN","NAN",14.07785,-7.640041,-2.607292,-2.101919,-5.028621,0.5169597,24.58134,27.61728,33.92424,38.57196,24.3892,25.25725,35.80277,38.79123,32.59277,0.2018073,0.293611,0.5255753,0.732154,0.1964311,0.2211296,0.6054295,0.7426471,0.4719677,1.000166,14.32342,13.17447,378.7,379.7,367.1,-11.93,12.91
"2022-10-08 00:29:00",818330,-6.09412,-6.438283,-16.18412,15.4962,-15.5177,15.70951,-1.174622,-0.5778967,-21.23876,14.58852,0,0.004,7232,0,0,0,12.66491,13.27629,13.23061,12.42659,13.02751,13.32296,11.42193,14.5088,13.98401,11.56517,"NAN","NAN",14.07131,-7.577039,-2.603013,-2.107639,-5.018359,0.5171203,24.58134,27.61728,33.92424,38.5697,24.38241,25.26403,35.80503,38.79802,32.58825,0.2018073,0.2936111,0.5255753,0.7320461,0.1962424,0.2213266,0.6055285,0.7429727,0.47179,1.000178,14.34828,13.17723,377.4,379.3,367.5,-11.47,12.83
"2022-10-08 00:30:00",818331,-6.416513,-6.586974,-16.24119,15.33153,-15.12545,15.53229,-1.112605,-0.5778925,-20.74882,14.53273,0,0.004,7363,0,0,0,12.59613,13.24035,13.16516,12.42659,13.02751,13.32623,11.4252,14.5088,13.98728,11.55832,"NAN","NAN",14.08112,-7.514037,-2.595323,-2.107627,-5.006391,0.5171313,24.58813,27.61728,33.93103,38.5697,24.36885,25.26629,35.80503,38.79575,32.59277,0.201998,0.293611,0.525855,0.7320462,0.195865,0.2213923,0.6055285,0.7428641,0.4719678,1.000191,14.34828,13.18092,376.5,378.7,367.6,-10.88,12.72
"2022-10-08 00:31:00",818332,-6.706707,-6.671967,-16.29838,15.25316,-15.18147,15.41396,-0.9259694,-0.5778925,-22.35174,14.47694,0,0.004,7888,0,0,0,12.53714,13.1678,13.09277,12.42659,13.02751,13.32296,11.42848,14.51228,13.97745,11.55163,"NAN","NAN",14.08766,-7.453701,-2.592764,-2.107627,-4.998715,0.5170538,24.58134,27.61954,33.93555,38.55387,24.37337,25.26403,35.80277,38.78219,32.58825,0.2018073,0.2936842,0.5260411,0.7312915,0.1959907,0.2213266,0.6054295,0.7422132,0.47179,1.000166,14.35656,13.1846,376,378,365.7,-12.29,12.59
"2022-10-08 00:32:00",818333,-6.86779,-6.693081,-17.84222,15.23308,-15.68546,15.36165,-0.7396545,-0.5778854,-21.55002,14.45724,0,0.004,7498,0,0,0,12.48144,13.10856,13.06325,12.42659,13.02751,13.33934,11.4252,14.51228,13.98728,11.55832,"NAN","NAN",14.07785,-7.396686,-2.584174,-2.108396,-4.985802,0.5171427,24.5836,27.61728,33.94911,38.56744,24.37563,25.26403,35.80955,38.79575,32.58373,0.2018709,0.2936111,0.5266002,0.7319384,0.1960536,0.2213266,0.6057267,0.7428642,0.4716122,1.000178,14.37313,13.19013,374.3,377.2,366.4,-10.94,12.44
"2022-10-08 00:33:00",818334,-6.964491,-6.671807,-18.18534,15.23308,-15.85352,15.3188,-1.050707,-0.6260425,-23.37553,14.42114,0,0.004,7787,0,0,0,12.44213,13.06883,12.99434,12.42987,13.02751,13.33606,11.4252,14.5088,13.98728,11.56175,"NAN","NAN",14.08439,-7.334602,-2.580762,-2.112489,-4.975568,0.517145,24.5836,27.61954,33.94911,38.5584,24.37563,25.25951,35.80503,38.80706,32.58825,0.2018709,0.2936842,0.5266002,0.731507,0.1960536,0.2211952,0.6055285,0.7434073,0.47179,1.000191,14.37313,13.18921,374,376.8,364.4,-12.68,12.36
"2022-10-08 00:34:00",818335,-7.018212,-6.597423,-19.04317,15.23656,-16.3017,15.31532,-1.360194,-0.7705154,-22.48507,14.39489,0,0.004,7630,0,0,0,12.43559,13.01942,12.99779,12.42987,13.02751,13.32623,11.4252,14.5088,13.98073,11.55832,"NAN","NAN",14.07458,-7.271616,-2.573929,-2.117394,-4.966167,0.5171438,24.58587,27.6105,33.96041,38.55613,24.37337,25.27308,35.80729,38.79349,32.58599,0.2019344,0.2933916,0.5270663,0.7313993,0.1959907,0.2215895,0.6056275,0.7427557,0.4717011,1.000178,14.38442,13.20118,373.2,376.3,365.2,-11.59,12.27
"2022-10-08 00:35:00",818336,-7.007428,-6.565517,-18.52852,15.2296,-16.30173,15.31493,-1.047569,-0.8668311,-22.26249,14.35879,0,0.004,7935,0,0,0,12.43231,13.00958,12.95169,12.42987,13.02751,13.32951,11.42193,14.51209,13.98728,11.5549,"NAN","NAN",14.07785,-7.213003,-2.570508,-2.117386,-4.955061,0.5171413,24.58134,27.61954,33.9785,38.56518,24.38015,25.27534,35.80729,38.80027,32.58599,0.2018073,0.2936842,0.5278124,0.7318305,0.1961794,0.2216553,0.6056275,0.7430813,0.4717011,1.000204,14.39572,13.18644,373.6,376.3,365.2,-11.58,12.27
"2022-10-08 00:36:00",818337,-6.95369,-6.501774,-16.12667,15.12056,-15.23735,15.29832,-1.2342,-0.8668311,-20.34791,14.2669,0,0.004,7507,0,0,0,12.37989,12.9405,12.91577,12.42987,13.02407,13.33606,11.4252,14.5088,13.98401,11.56502,"NAN","NAN",14.08112,-7.154417,-2.562832,-2.115748,-4.943974,0.5170638,24.5836,27.61276,33.96719,38.56518,24.37789,25.27986,35.80729,38.78897,32.59051,0.2018709,0.2934647,0.527346,0.7318305,0.1961165,0.2217868,0.6056275,0.7425385,0.4718789,1.000178,14.39572,13.19289,375.4,377.3,366.6,-11.15,12.46
"2022-10-08 00:37:00",818338,-6.878426,-6.438003,-14.63966,14.83127,-13.5006,15.10415,-1.231677,-0.8186647,-19.90244,14.15535,0,0.004,7576,0,0,0,12.37007,12.93048,12.88934,12.42659,13.02751,13.33606,11.4252,14.51555,13.98073,11.55818,"NAN","NAN",14.08112,-7.094044,-2.555143,-2.121468,-4.932861,0.5170742,24.5836,27.61728,33.96267,38.55387,24.36885,25.28438,35.81181,38.79575,32.59504,0.2018709,0.293611,0.5271594,0.7312917,0.1958649,0.2219183,0.6058258,0.7428641,0.4720567,1.000204,14.39572,13.18736,375.4,378,366.5,-11.97,12.59
"2022-10-08 00:38:00",818339,-6.803187,-6.406126,-11.60879,14.61478,-12.15614,14.90769,-0.8584035,-0.577881,-19.59077,14.04706,0,0.004,7098,0,0,0,12.34059,12.85104,12.83028,12.42987,13.02751,13.33278,11.42193,14.50553,13.98401,11.57783,"NAN","NAN",14.07131,-7.036334,-2.545761,-2.121468,-4.920068,0.5171537,24.5836,27.61276,33.96493,38.56292,24.36885,25.28212,35.80729,38.79802,32.57921,0.2018709,0.2934647,0.5272526,0.7317226,0.1958649,0.2218526,0.6056275,0.7429727,0.4714345,1.000217,14.39572,13.17539,377.2,378.3,366.2,-12.48,12.64
"2022-10-08 00:39:00",818340,-6.695672,-6.352969,-10.63658,14.40466,-11.42784,14.67036,-0.7346599,-0.5778784,-18.38853,13.95518,0,0.004,7224,0,0,0,12.27506,12.81182,12.77777,12.42987,13.02751,13.33606,11.4252,14.5088,13.98728,11.57128,"NAN","NAN",14.07784,-6.978561,-2.539769,-2.123906,-4.908937,0.5171571,24.5836,27.61728,33.95815,38.56292,24.37789,25.28664,35.80503,38.80027,32.59051,0.2018709,0.2936113,0.5269729,0.7317226,0.1961165,0.2219841,0.6055285,0.7430813,0.4718789,1.000153,14.39572,13.18736,377.1,377.7,366.9,-11.16,12.53
"2022-10-08 00:40:00",818341,-6.609613,-6.321023,-10.69372,14.22772,-10.75556,14.4801,-1.233042,-0.5778758,-15.85057,13.90269,0,0.004,7424,0,0,0,12.22922,12.7562,12.70886,12.42331,13.02751,13.33606,11.4252,14.51209,13.99056,11.5945,"NAN","NAN",14.08439,-6.923412,-2.532923,-2.126343,-4.897806,0.5171639,24.58587,27.6105,33.95363,38.5584,24.38241,25.28438,35.80503,38.79349,32.59277,0.2019345,0.2933916,0.5267865,0.7315071,0.1962424,0.2219184,0.6055285,0.7427557,0.4719678,1.000217,14.39572,13.17723,376.1,377.4,369.1,-8.49,12.47
"2022-10-08 00:41:00",818342,-6.555876,-6.352893,-10.86527,14.11603,-10.92362,14.33923,-0.7353439,-0.5778758,-14.87105,13.83708,0,0.004,7977,0,0,0,12.17665,12.70401,12.66621,12.42659,13.02751,13.33278,11.42193,14.51209,13.98728,11.61072,"NAN","NAN",14.07785,-6.866577,-2.523542,-2.127162,-4.885867,0.5171639,24.58587,27.61954,33.95815,38.56292,24.37789,25.28212,35.80503,38.79575,32.59051,0.2019344,0.2936842,0.5269729,0.7317226,0.1961165,0.2218526,0.6055285,0.7428641,0.4718789,1.000229,14.39572,13.19657,375.3,376.4,369.8,-6.85,12.29
"2022-10-08 00:42:00",818343,-6.512856,-6.427227,-8.97808,14.057,-10.69947,14.2505,-1.047485,-0.5778716,-13.00094,13.82067,0,0.004,7869,0,0,0,12.12768,12.6479,12.58091,12.42987,13.02751,13.33278,11.4188,14.51228,13.98401,11.6073,"NAN","NAN",14.06802,-6.809702,-2.515,-2.12715,-4.873047,0.5171707,24.58587,27.61276,33.96719,38.5697,24.38241,25.28212,35.80729,38.78897,32.59051,0.2019344,0.2934648,0.5273459,0.7320462,0.1962423,0.2218525,0.6056276,0.7425385,0.4718789,1.000217,14.39572,13.19105,376.8,376.2,371.6,-4.696,12.24
"2022-10-08 00:43:00",818344,-6.502102,-6.437845,-6.805041,13.97171,-10.41938,14.17507,-1.358546,-0.5778716,-13.22356,13.70584,0,0.004,7672,0,0,0,12.07854,12.58867,12.51874,12.42987,13.02751,13.33278,11.41225,14.5088,13.98728,11.62055,"NAN","NAN",14.0713,-6.758114,-2.508177,-2.128787,-4.86196,0.5171721,24.58587,27.61502,33.96267,38.56292,24.37563,25.28664,35.80277,38.79349,32.59051,0.2019345,0.2935379,0.5271593,0.7317226,0.1960536,0.2219841,0.6054295,0.7427561,0.4718789,1.000178,14.39572,13.18552,378.6,376,370.7,-5.387,12.22
"2022-10-08 00:44:00",818345,-6.394622,-6.427214,-5.203874,13.87005,-9.747194,14.07357,-1.172346,-0.5778737,-10.95288,13.65336,0,0.004,7363,0,0,0,12.0327,12.53962,12.46608,12.42987,13.02751,13.33278,11.40882,14.5088,13.98728,11.6405,"NAN","NAN",14.06148,-6.705638,-2.497938,-2.128783,-4.850011,0.5171693,24.58587,27.6105,33.96719,38.56518,24.37563,25.27534,35.80277,38.79349,32.59051,0.2019344,0.2933916,0.5273459,0.7318304,0.1960537,0.2216553,0.6054295,0.7427557,0.4718789,1.000204,14.39572,13.17355,379.6,376.2,372.7,-3.427,12.24
"2022-10-08 00:45:00",818346,-6.276387,-6.331586,-4.231738,13.73232,-9.01899,13.96533,-0.9239349,-0.2889379,-11.17555,13.5582,0,0.004,7410,0,0,0,12.02942,12.50335,12.44654,12.42987,13.02751,13.33278,11.40555,14.51228,13.98401,11.62367,"NAN","NAN",14.06802,-6.652288,-2.491111,-2.129598,-4.83721,0.5172412,24.58813,27.61728,33.96493,38.5697,24.37563,25.26177,35.80729,38.79575,32.58825,0.2019981,0.2936111,0.5272526,0.7320462,0.1960536,0.2212609,0.6056276,0.7428644,0.47179,1.000153,14.39572,13.16434,379.9,376.3,372,-4.282,12.27